To NAV CANADA Home Page Login to a new session Search on AWWS site Feedback and Comments Disclaimer Vers la page française équivalente Tips FAQ What's new on the site To the Forecasts and Observations / NOTAM section To "File a Flight Plan" website Publications and other links Update of the User's profile FIC Telephone Numbers My Weather Data Folder Route Weather Data Regional Weather Data Local Weather Data To the Forecasts and Observations / NOTAM section
Request Generated 12/01/2015 at 12:48:51 UTC . Weather information available at that time is displayed.



LWIS CYAS 011200Z AUTO 30015G23KT M16/M19 A2951=
LWIS CYAS 011100Z AUTO 31013KT M15/M19 A2951=
LWIS CYAS 011000Z AUTO 31016G21KT M14/M18 A2949=

CYAS - No TAF is issued for this station

Your time UTC time
Weather data provided by Environment Canada and NAV CANADA